Total_Precipitation_Accumulation
0.22 0.53 1.18 1.73 2.58 2.78 2.09 1.23 0.96 0.69 0.60 0.71 0.65 0.57 0.70 0.97 1.44 2.56 2.67 2.59 2.11 1.98 2.11 2.62 3.16 2.93 2.66 2.53 2.49 2.46 2.24 2.23 2.41 2.62 2.67 2.80 2.89 2.98 3.08 3.27 3.39 3.61 4.02 3.88 3.39 2.93 2.80 2.75 2.65
0.47 0.90 1.55 2.20 2.96 2.79 1.92 1.13 0.89 0.59 0.57 0.61 0.52 0.49 0.61 0.74 0.94 1.62 2.34 2.40 1.83 1.62 1.76 2.09 2.61 2.68 2.47 2.30 2.28 2.25 2.20 2.20 2.45 2.77 2.71 2.78 2.86 2.99 3.18 3.48 3.47 3.53 3.49 3.09 2.92 2.63 2.44 2.30 2.33
0.80 1.24 1.88 2.42 2.24 1.96 1.31 0.82 0.62 0.50 0.59 0.60 0.52 0.53 0.75 1.10 1.23 1.63 1.88 1.80 1.55 1.42 1.60 2.10 2.41 2.40 2.34 2.18 2.09 2.07 2.26 2.41 2.68 2.78 2.63 2.67 2.69 2.81 3.08 3.51 3.46 3.24 2.95 2.70 2.62 2.37 2.26 2.03 1.98
1.02 1.61 1.83 1.82 1.54 1.16 0.82 0.67 0.49 0.47 0.58 0.53 0.51 0.79 1.11 1.33 1.18 1.29 1.37 1.32 1.21 1.30 1.61 2.06 2.18 1.94 1.99 2.13 2.10 2.12 2.35 2.65 2.82 2.62 2.60 2.61 2.66 2.66 2.77 2.93 3.01 2.89 2.58 2.48 2.36 2.15 2.03 1.93 1.91
1.18 1.81 1.96 1.44 1.08 0.83 0.64 0.55 0.48 0.46 0.43 0.51 0.63 1.08 1.56 1.60 1.12 1.16 1.21 1.09 1.05 1.36 1.68 1.84 2.02 1.77 1.65 1.81 2.01 2.25 2.53 2.81 2.72 2.44 2.34 2.35 2.39 2.40 2.40 2.42 2.50 2.54 2.39 2.29 2.19 2.10 1.94 2.01 1.98
1.43 1.63 1.51 1.07 0.81 0.61 0.56 0.49 0.43 0.41 0.46 0.55 0.70 0.94 1.74 1.79 1.36 1.42 1.30 1.27 1.28 1.41 1.55 1.77 1.94 1.75 1.66 1.76 1.88 2.07 2.46 2.71 2.54 2.31 2.20 2.11 2.02 2.02 2.10 2.18 2.27 2.30 2.15 2.02 1.99 1.98 1.96 1.98 1.91
1.42 1.44 1.11 0.72 0.62 0.54 0.46 0.40 0.39 0.43 0.58 0.66 0.74 1.09 1.92 2.16 1.68 1.48 1.52 1.61 1.53 1.59 1.78 1.80 1.68 1.68 1.84 2.03 2.15 2.16 2.43 2.53 2.37 2.27 2.13 2.01 1.92 1.98 2.00 1.97 2.08 2.13 2.06 1.99 1.93 1.94 1.91 1.94 1.92
0.91 0.89 0.74 0.53 0.48 0.51 0.37 0.31 0.36 0.45 0.62 0.74 0.89 1.26 2.02 2.10 1.70 1.56 1.66 1.94 1.77 1.73 1.76 1.72 1.57 1.63 1.69 1.93 2.37 2.47 2.48 2.47 2.39 2.29 2.22 2.06 1.96 2.10 2.12 1.88 2.08 2.14 2.21 2.16 2.17 2.27 2.02 1.99 2.14
0.56 0.71 0.60 0.44 0.40 0.42 0.34 0.30 0.35 0.48 0.61 0.74 1.02 1.25 1.47 1.51 1.59 1.55 1.78 2.20 2.26 1.99 1.86 1.70 1.41 1.57 1.81 2.04 2.20 2.36 2.40 2.55 2.62 2.57 2.43 2.39 2.44 2.43 2.53 2.27 2.63 2.62 2.64 2.59 2.62 2.70 2.56 2.48 2.37
0.48 0.58 0.47 0.30 0.29 0.32 0.30 0.28 0.36 0.65 0.86 1.14 1.42 1.40 1.27 1.31 1.52 1.66 1.89 2.35 2.46 2.30 2.07 1.85 1.60 1.68 1.99 1.99 2.01 2.21 2.21 2.41 2.56 2.69 2.59 2.89 3.18 3.02 2.38 2.72 3.23 3.39 3.34 3.19 3.25 3.39 3.17 2.80 2.53
0.40 0.41 0.30 0.27 0.26 0.21 0.20 0.26 0.32 0.51 1.07 1.60 1.85 1.82 1.66 1.46 1.66 2.02 2.38 2.74 2.54 2.29 2.18 2.13 1.99 2.00 1.96 2.10 2.07 2.26 2.46 2.87 2.77 2.68 2.68 3.13 3.04 2.77 2.56 2.87 3.39 3.82 3.57 3.30 3.40 3.60 3.18 3.20 3.48
0.33 0.27 0.19 0.18 0.19 0.15 0.18 0.27 0.40 0.57 1.08 1.37 1.55 1.62 1.62 1.61 1.74 1.98 2.28 2.59 2.80 2.76 2.64 2.55 2.47 2.42 2.46 2.41 2.30 2.23 2.35 2.61 2.74 2.95 2.70 3.03 3.34 3.28 3.23 3.55 3.55 3.80 3.89 4.23 4.01 4.13 3.94 3.85 3.64
0.26 0.20 0.15 0.14 0.14 0.15 0.17 0.29 0.46 0.68 0.94 0.97 1.02 1.13 1.39 1.68 2.11 2.40 2.52 2.86 2.98 3.16 3.07 3.03 2.96 2.98 3.04 3.04 2.90 2.38 2.54 2.65 2.79 3.11 3.11 3.24 3.62 3.80 3.86 3.88 3.80 3.49 3.77 4.21 4.51 4.10 4.45 4.46 4.02
0.23 0.17 0.15 0.16 0.16 0.18 0.21 0.30 0.44 0.70 0.81 0.84 0.91 1.11 1.38 1.71 2.02 2.47 2.74 3.15 3.16 3.26 3.50 3.72 3.66 3.56 3.63 3.57 3.46 3.25 3.04 3.23 3.22 3.41 3.62 3.82 4.17 4.39 4.32 4.14 4.04 3.64 3.57 3.91 4.12 4.10 4.62 4.47 4.18
0.21 0.23 0.23 0.21 0.19 0.23 0.38 0.61 0.69 0.81 0.81 0.96 1.05 1.31 1.50 1.81 2.18 2.28 2.45 2.74 3.09 3.43 4.04 4.42 4.46 4.34 4.37 4.36 4.08 3.80 3.75 3.76 4.04 4.32 4.39 4.40 4.53 4.86 4.64 4.39 3.96 3.70 3.71 3.98 3.96 3.99 4.14 3.94 3.82
0.29 0.39 0.47 0.36 0.27 0.29 0.49 1.01 0.95 0.90 0.94 1.11 1.14 1.38 1.73 1.83 2.16 2.29 2.34 2.60 3.25 3.79 4.49 4.90 5.02 5.21 5.12 5.18 4.97 4.55 4.44 4.44 4.50 4.63 4.85 4.63 4.61 4.53 4.61 4.28 3.77 3.78 3.72 3.84 4.05 3.90 3.98 3.95 3.93
0.37 0.44 0.51 0.51 0.33 0.33 0.50 0.93 0.98 0.93 1.09 1.21 1.36 1.40 1.56 1.79 2.23 2.51 2.69 2.84 3.48 4.18 4.92 5.47 6.03 6.25 6.10 5.85 5.54 5.25 5.22 5.07 4.90 4.89 4.91 4.76 4.42 4.19 4.44 4.18 3.94 3.81 3.76 3.69 3.46 3.95 4.09 4.11 4.10
0.41 0.42 0.50 0.56 0.34 0.34 0.57 0.83 0.99 1.08 1.23 1.36 1.40 1.36 1.49 1.84 2.06 2.41 2.78 3.20 3.78 4.29 5.07 5.79 6.52 6.73 6.48 5.96 5.76 5.73 5.55 5.24 4.98 4.77 4.75 4.42 4.18 3.81 4.07 3.80 3.71 3.81 3.99 3.86 3.92 4.28 4.28 3.93 4.03
0.29 0.35 0.47 0.49 0.34 0.40 0.62 0.82 1.01 1.20 1.35 1.39 1.50 1.46 1.64 1.93 2.10 2.48 2.89 3.37 3.90 4.46 5.17 5.86 6.47 6.61 6.48 6.17 5.87 5.63 5.17 4.86 4.55 4.31 4.16 3.93 3.63 3.50 3.90 3.56 3.92 3.77 3.74 3.60 3.58 3.81 3.85 3.49 3.67
0.25 0.35 0.49 0.48 0.36 0.42 0.67 0.91 1.17 1.25 1.18 1.17 1.34 1.43 1.51 1.72 2.03 2.42 2.99 3.29 3.64 4.19 4.80 5.20 5.34 5.20 5.11 5.21 5.18 4.91 4.89 4.73 4.67 4.52 4.40 3.93 3.70 3.58 3.36 3.59 3.41 3.38 3.53 3.34 3.30 3.55 3.55 3.19 3.50
0.20 0.30 0.39 0.44 0.44 0.54 0.78 1.20 1.44 1.43 1.16 1.05 1.07 1.20 1.34 1.47 1.68 2.05 2.62 2.96 3.14 3.67 4.04 4.05 4.07 4.09 4.24 4.34 4.31 4.36 4.59 4.67 4.78 4.77 4.56 4.20 3.96 3.73 3.52 3.38 3.24 3.23 3.03 3.21 3.28 3.33 3.48 3.45 3.34
0.21 0.20 0.26 0.33 0.49 0.85 0.97 1.53 1.78 1.86 1.57 1.23 1.10 1.26 1.34 1.40 1.42 1.74 2.10 2.34 2.63 2.94 3.11 3.12 3.26 3.44 3.57 3.66 3.66 3.58 3.63 3.90 4.19 4.47 4.62 4.57 4.28 3.96 3.63 3.36 3.15 3.00 2.81 3.13 2.81 2.96 3.29 3.53 3.22
0.15 0.15 0.22 0.34 0.48 0.70 0.84 1.20 1.74 2.03 1.99 1.57 1.27 1.21 1.17 1.30 1.47 1.65 1.78 1.99 2.11 2.21 2.38 2.45 2.73 3.22 3.45 3.52 3.64 3.59 3.34 3.36 3.48 3.64 3.86 3.87 3.90 3.71 3.32 3.20 3.13 2.94 2.74 2.80 2.80 3.17 3.16 3.13 3.05
0.14 0.20 0.33 0.49 0.73 1.09 0.93 1.06 1.64 1.84 1.86 1.47 1.25 1.17 1.08 1.08 1.19 1.40 1.67 1.79 1.80 1.83 1.98 2.19 2.52 3.11 3.44 3.52 3.42 3.44 3.47 3.55 3.45 3.42 3.53 3.45 3.42 3.32 3.02 2.87 3.01 2.90 2.78 2.84 2.83 2.93 2.99 3.14 3.20
0.17 0.34 0.80 1.29 1.62 1.65 1.01 0.97 1.27 1.35 1.22 1.18 1.06 1.10 1.16 1.06 0.99 0.99 1.17 1.42 1.46 1.45 1.61 1.87 2.15 2.63 2.97 3.13 2.98 2.95 3.16 3.38 3.28 3.09 3.03 3.02 2.87 2.79 2.74 2.75 2.87 2.76 2.81 2.86 2.97 3.01 2.98 3.10 3.13
0.16 0.28 0.66 1.04 1.18 1.30 1.16 1.51 1.57 1.18 0.99 0.89 0.80 0.87 0.96 0.86 0.77 0.72 0.79 0.98 1.25 1.27 1.39 1.55 1.82 2.09 2.40 2.62 2.68 2.75 2.95 3.08 3.03 3.24 2.97 2.81 2.47 2.36 2.48 2.69 2.69 2.59 2.57 2.61 3.06 3.06 3.06 3.17 3.08
0.18 0.20 0.32 0.48 0.69 1.05 1.35 1.57 1.48 1.22 1.12 0.92 0.76 0.73 0.73 0.67 0.68 0.71 0.77 0.99 1.08 1.07 1.18 1.34 1.56 1.77 2.04 2.28 2.48 2.54 2.52 2.55 2.70 2.87 2.81 2.64 2.56 2.29 2.38 2.50 2.74 2.81 2.85 2.90 3.08 3.03 3.05 3.27 3.21
0.16 0.19 0.26 0.39 0.65 0.94 1.25 1.70 1.75 1.51 1.30 1.09 1.01 0.82 0.71 0.71 0.72 0.72 0.73 0.79 0.84 0.91 1.06 1.30 1.51 1.54 1.79 2.17 2.42 2.37 2.45 2.38 2.53 2.51 2.49 2.52 2.44 2.39 2.47 2.50 2.59 2.79 2.91 2.93 3.06 3.03 3.10 3.29 3.30
0.21 0.19 0.21 0.30 0.37 0.60 1.15 1.39 1.23 1.22 1.15 1.09 1.00 0.93 0.87 0.81 0.77 0.73 0.74 0.74 0.86 0.83 0.93 1.13 1.31 1.45 1.73 2.11 2.44 2.51 2.46 2.46 2.51 2.33 2.28 2.41 2.43 2.42 2.51 2.55 2.55 2.52 2.66 2.89 3.11 3.01 3.16 3.28 3.30
0.21 0.21 0.22 0.31 0.33 0.39 0.63 0.96 0.73 0.83 0.96 1.00 0.89 0.82 0.78 0.68 0.65 0.60 0.59 0.67 0.68 0.70 0.83 1.18 1.48 1.86 2.07 2.42 2.82 2.92 2.71 2.50 2.33 2.12 2.11 2.29 2.46 2.50 2.49 2.51 2.50 2.43 2.54 2.83 2.96 3.05 3.34 3.48 3.33